I1SCL Weather Reports


time (UTC)temp
C
wind
direction
speed
KPH
gust
KPH
rain 1hr
cm
rain 24hr
cm
rain mn
cm
humidity
%
barometer
mb
20260503212134 14 68 1.6 3.2 0.00 0.00 0.00 77 1015.4
20260503211631 14 90 0.0 1.6 0.00 0.00 0.00 77 1015.4
20260503211131 14 90 0.0 3.2 0.00 0.00 0.00 77 1015.5
20260503210628 14 90 1.6 3.2 0.00 0.00 0.00 76 1015.5
20260503210134 14 90 0.0 3.2 0.00 0.00 0.00 77 1015.6
20260503205631 14 90 1.6 3.2 0.00 0.00 0.00 77 1015.5
20260503205128 14 68 0.0 1.6 0.00 0.00 0.00 77 1015.5
20260503204631 14 0 0.0 1.6 0.00 0.00 0.00 77 1015.7
20260503204134 14 338 0.0 1.6 0.00 0.00 0.00 77 1015.8
20260503203628 14 270 0.0 1.6 0.00 0.00 0.00 77 1015.9
20260503203128 14 338 0.0 3.2 0.00 0.00 0.00 77 1015.8
20260503202634 14 315 1.6 4.8 0.00 0.00 0.00 77 1016.0
20260503202134 14 293 3.2 4.8 0.00 0.00 0.00 77 1015.8
20260503201628 14 315 0.0 4.8 0.00 0.00 0.00 77 1015.8
20260503201128 14 338 3.2 4.8 0.00 0.00 0.00 77 1015.8
20260503200631 14 293 1.6 4.8 0.00 0.00 0.00 76 1015.8
20260503200134 14 293 3.2 4.8 0.00 0.00 0.00 76 1015.8
20260503195628 14 293 3.2 3.2 0.00 0.00 0.00 76 1015.6
20260503195131 14 270 0.0 3.2 0.00 0.00 0.00 76 1015.7
20260503194628 14 248 3.2 3.2 0.00 0.00 0.00 76 1015.9
20260503194131 14 225 1.6 3.2 0.00 0.00 0.00 76 1015.6
20260503193628 14 180 1.6 1.6 0.00 0.00 0.00 76 1015.8
20260503193131 14 135 0.0 1.6 0.00 0.00 0.00 76 1015.7
20260503192631 15 135 0.0 3.2 0.00 0.00 0.00 76 1015.5
20260503192128 15 113 1.6 4.8 0.00 0.00 0.00 76 1015.5
20260503191628 15 90 0.0 4.8 0.00 0.00 0.00 75 1015.5
20260503191128 15 135 1.6 4.8 0.00 0.00 0.00 75 1015.5
20260503190628 15 135 0.0 4.8 0.00 0.00 0.00 75 1015.2
20260503190131 15 113 0.0 1.6 0.00 0.00 0.00 74 1015.3
20260503185628 15 113 0.0 4.8 0.00 0.00 0.00 74 1015.5
20260503185131 15 113 3.2 4.8 0.00 0.00 0.00 74 1015.5
20260503184631 15 135 3.2 4.8 0.00 0.00 0.00 74 1015.3
20260503184131 15 135 1.6 6.4 0.00 0.00 0.00 74 1015.4
20260503183631 15 113 0.0 4.8 0.00 0.00 0.00 74 1015.3
20260503183131 15 113 3.2 6.4 0.00 0.00 0.00 73 1015.1
20260503182634 15 135 1.6 6.4 0.00 0.00 0.00 74 1015.5
20260503182128 15 135 1.6 4.8 0.00 0.00 0.00 75 1015.2
20260503181631 15 113 0.0 9.7 0.00 0.00 0.00 75 1015.4
20260503181128 15 158 4.8 9.7 0.00 0.00 0.00 75 1015.4
20260503180628 15 113 4.8 9.7 0.00 0.00 0.00 76 1015.1
20260503180128 15 135 4.8 14.5 0.00 0.00 0.00 76 1015.3
20260503175628 15 158 9.7 14.5 0.00 0.00 0.00 77 1015.1
20260503175131 15 113 8.0 14.5 0.00 0.00 0.00 77 1015.2
20260503174628 15 90 8.0 12.9 0.00 0.00 0.00 77 1015.2
20260503174128 15 113 4.8 16.1 0.00 0.00 0.00 77 1015.2
20260503173628 15 158 9.7 14.5 0.00 0.00 0.00 77 1015.1
20260503173128 15 113 8.0 14.5 0.00 0.00 0.00 77 1015.2
20260503172628 15 113 8.0 14.5 0.00 0.00 0.00 77 1015.3
20260503172131 15 113 9.7 17.7 0.00 0.00 0.00 77 1015.3
20260503171628 15 135 9.7 16.1 0.00 0.00 0.00 76 1015.3
20260503171128 15 135 9.7 14.5 0.00 0.00 0.00 76 1015.3
20260503170628 15 135 6.4 16.1 0.00 0.00 0.00 75 1015.4
20260503170128 15 113 11.3 17.7 0.00 0.00 0.00 74 1015.7
20260503160128 16 135 11.3 19.3 0.00 0.00 0.00 71 1015.6
20260503150628 16 113 14.5 24.1 0.00 0.00 0.00 71 1015.5
20260503150128 16 135 12.9 24.1 0.00 0.00 0.00 71 1015.6
20260503140128 16 135 9.7 19.3 0.00 0.00 0.00 68 1016.7
20260503131134 16 113 6.4 17.7 0.00 0.00 0.00 70 1017.0
20260503130631 15 90 9.7 16.1 0.00 0.00 0.00 72 1017.0
20260503130134 16 135 11.3 16.1 0.00 0.00 0.00 71 1017.1
20260503120128 16 113 9.7 17.7 0.00 0.00 0.00 69 1017.6
20260503110631 17 158 9.7 17.7 0.00 0.00 0.00 65 1017.4
20260503110137 17 113 4.8 19.3 0.00 0.00 0.00 65 1017.4
20260503100128 16 135 9.7 16.1 0.00 0.00 0.00 57 1018.2
20260503090128 16 113 8.0 14.5 0.00 0.00 0.00 71 1017.8
20260503081628 16 113 8.0 12.9 0.00 0.00 0.00 68 1017.8
20260503081137 15 113 8.0 12.9 0.00 0.00 0.00 69 1017.9
20260503080637 16 113 4.8 9.7 0.00 0.00 0.00 68 1017.7
20260503080128 16 90 4.8 12.9 0.00 0.00 0.00 69 1017.8
20260503072628 15 113 4.8 9.7 0.00 0.00 0.00 69 1017.4
20260503072128 15 113 3.2 9.7 0.00 0.00 0.00 68 1017.5
20260503071634 15 135 6.4 9.7 0.00 0.00 0.00 68 1017.5
20260503071131 15 113 4.8 9.7 0.00 0.00 0.00 67 1017.6
20260503070628 15 135 4.8 6.4 0.00 0.00 0.00 64 1017.6
20260503070131 15 45 0.0 9.7 0.00 0.00 0.00 66 1017.4
20260503060128 14 90 3.2 9.7 0.00 0.00 0.00 67 1017.2
20260503054637 14 68 4.8 6.4 0.00 0.00 0.00 68 1017.3
20260503054128 14 90 4.8 6.4 0.00 0.00 0.00 68 1017.0
20260503053634 13 68 4.8 6.4 0.00 0.00 0.00 67 1017.2
20260503053131 14 90 1.6 3.2 0.00 0.00 0.00 67 1017.6
20260503052631 14 90 0.0 3.2 0.00 0.00 0.00 68 1017.4
20260503052128 14 90 0.0 3.2 0.00 0.00 0.00 67 1017.4
20260503051631 13 90 1.6 3.2 0.00 0.00 0.00 67 1017.2
20260503051128 13 90 0.0 1.6 0.00 0.00 0.00 67 1017.3
20260503050628 13 90 0.0 1.6 0.00 0.00 0.00 68 1017.2
20260503050134 13 90 0.0 3.2 0.00 0.00 0.00 68 1017.2
20260503045628 13 90 0.0 3.2 0.00 0.00 0.00 68 1017.1
20260503045131 13 90 1.6 4.8 0.00 0.00 0.00 69 1017.1
20260503044628 13 90 1.6 4.8 0.00 0.00 0.00 69 1017.1
20260503044128 13 113 3.2 4.8 0.00 0.00 0.00 68 1017.2
20260503043628 13 113 3.2 6.4 0.00 0.00 0.00 68 1017.1
20260503043128 13 113 4.8 6.4 0.00 0.00 0.00 67 1016.9
20260503042628 13 113 4.8 6.4 0.00 0.00 0.00 67 1017.2
20260503042128 13 113 3.2 4.8 0.00 0.00 0.00 67 1017.2
20260503041634 13 113 3.2 3.2 0.00 0.00 0.00 67 1017.4
20260503041128 13 113 1.6 4.8 0.00 0.00 0.00 67 1017.3
20260503040634 13 90 1.6 3.2 0.00 0.00 0.00 66 1017.4
20260503040128 13 113 1.6 4.8 0.00 0.00 0.00 65 1017.2
20260503035628 13 113 3.2 6.4 0.00 0.00 0.00 65 1017.2
20260503035131 13 113 4.8 6.4 0.00 0.00 0.00 65 1017.2
20260503034631 13 113 1.6 4.8 0.00 0.00 0.00 64 1017.3
20260503034128 13 113 3.2 6.4 0.00 0.00 0.00 63 1017.0
20260503033631 13 113 3.2 4.8 0.00 0.00 0.00 63 1017.1
20260503033131 13 113 3.2 4.8 0.00 0.00 0.00 63 1017.3
20260503032634 13 135 1.6 3.2 0.00 0.00 0.00 61 1017.2
20260503032131 13 135 0.0 1.6 0.00 0.00 0.00 60 1017.1
20260503031631 13 135 0.0 1.6 0.00 0.00 0.00 63 1017.1
20260503031128 13 135 0.0 1.6 0.00 0.00 0.00 66 1017.4
20260503030628 13 135 0.0 1.6 0.00 0.00 0.00 68 1017.2
20260503030128 13 135 0.0 1.6 0.00 0.00 0.00 68 1017.3
20260503025628 14 135 0.0 1.6 0.00 0.00 0.00 67 1017.4
20260503025137 13 135 0.0 1.6 0.00 0.00 0.00 62 1017.2
20260503024631 14 158 0.0 3.2 0.00 0.00 0.00 63 1017.2
20260503024137 14 158 1.6 3.2 0.00 0.00 0.00 63 1017.3
20260503023628 13 158 0.0 1.6 0.00 0.00 0.00 62 1017.5
20260503023131 14 180 0.0 3.2 0.00 0.00 0.00 62 1017.3
20260503022628 14 158 1.6 3.2 0.00 0.00 0.00 62 1017.2
20260503022134 14 113 1.6 4.8 0.00 0.00 0.00 60 1017.5
20260503021629 14 113 0.0 6.4 0.00 0.00 0.00 59 1017.3
20260503021132 14 135 4.8 6.4 0.00 0.00 0.00 60 1017.4
20260503020629 14 135 4.8 6.4 0.00 0.00 0.00 59 1017.4
20260503020131 14 158 4.8 4.8 0.00 0.00 0.00 58 1017.8
20260503015631 14 158 4.8 4.8 0.00 0.00 0.00 57 1017.4
20260503015131 15 158 4.8 4.8 0.00 0.00 0.00 50 1017.4
20260503014628 15 158 3.2 3.2 0.00 0.00 0.00 43 1017.6
20260503014131 16 338 1.6 3.2 0.00 0.00 0.00 41 1017.6
20260503013628 16 338 0.0 3.2 0.00 0.00 0.00 42 1017.5
20260503013134 16 0 1.6 4.8 0.00 0.00 0.00 42 1017.6
20260503012634 16 45 1.6 3.2 0.00 0.00 0.00 41 1017.5
20260503012128 16 45 1.6 3.2 0.00 0.00 0.00 41 1017.7
20260503011628 16 45 1.6 3.2 0.00 0.00 0.00 41 1017.5
20260503011128 16 45 0.0 1.6 0.00 0.00 0.00 41 1017.5
20260503010634 15 113 0.0 3.2 0.00 0.00 0.00 42 1017.6
20260503010128 15 113 0.0 1.6 0.00 0.00 0.00 43 1017.6
20260503005628 15 113 0.0 1.6 0.00 0.00 0.00 43 1017.7
20260503005128 15 135 0.0 3.2 0.00 0.00 0.00 43 1017.9
20260503004628 15 113 3.2 3.2 0.00 0.00 0.00 42 1017.8
20260503004137 15 113 1.6 3.2 0.00 0.00 0.00 42 1017.8
20260503003628 16 113 0.0 4.8 0.00 0.00 0.00 42 1017.8
20260503003137 16 113 4.8 6.4 0.00 0.00 0.00 41 1018.0
20260503002628 16 90 4.8 6.4 0.00 0.00 0.00 42 1017.6
20260503002128 15 90 3.2 9.7 0.00 0.00 0.00 42 1017.9
20260503001628 15 113 6.4 9.7 0.00 0.00 0.00 42 1017.6
20260503001128 16 158 6.4 9.7 0.00 0.00 0.00 42 1017.8
20260503000631 15 90 6.4 6.4 0.00 0.00 0.00 42 1017.7
20260503000128 15 90 6.4 9.7 0.00 0.00 0.00 42 1017.7
20260502235631 15 113 4.8 6.4 0.00 0.00 0.00 43 1017.8
20260502235128 16 90 4.8 6.4 0.00 0.00 0.00 42 1017.9
20260502234637 16 45 0.0 3.2 0.00 0.00 0.00 42 1018.1
20260502234131 16 0 1.6 3.2 0.00 0.00 0.00 42 1018.3
20260502233631 16 68 0.0 1.6 0.00 0.00 0.00 42 1018.4
20260502233128 16 90 0.0 3.2 0.00 0.00 0.00 43 1018.4
20260502232631 15 90 3.2 4.8 0.00 0.00 0.00 44 1018.2
20260502232131 15 68 3.2 4.8 0.00 0.00 0.00 45 1018.2
20260502231628 15 90 4.8 4.8 0.00 0.00 0.00 46 1018.5
20260502231137 15 90 4.8 4.8 0.00 0.00 0.00 46 1018.4
20260502230634 15 90 3.2 4.8 0.00 0.00 0.00 46 1018.5
20260502230131 15 68 3.2 4.8 0.00 0.00 0.00 47 1018.6
20260502225628 15 90 4.8 6.4 0.00 0.00 0.00 46 1018.5
20260502225131 15 90 4.8 4.8 0.00 0.00 0.00 47 1018.7
20260502224628 15 90 3.2 9.7 0.00 0.00 0.00 47 1018.4
20260502224128 15 90 6.4 6.4 0.00 0.00 0.00 48 1018.6
20260502223634 15 68 4.8 4.8 0.00 0.00 0.00 48 1018.6
20260502223128 15 90 4.8 4.8 0.00 0.00 0.00 47 1018.5
20260502222631 15 248 1.6 4.8 0.00 0.00 0.00 45 1018.6
20260502222131 15 225 4.8 6.4 0.00 0.00 0.00 45 1018.6
20260502221628 15 225 4.8 6.4 0.00 0.00 0.00 46 1018.8
20260502221128 15 270 1.6 4.8 0.00 0.00 0.00 46 1018.8
20260502220634 15 248 3.2 4.8 0.00 0.00 0.00 46 1018.8
20260502220128 15 270 3.2 4.8 0.00 0.00 0.00 47 1018.5
20260502215628 15 270 3.2 6.4 0.00 0.00 0.00 49 1018.7
20260502215131 15 248 4.8 4.8 0.00 0.00 0.00 49 1018.8
20260502214628 15 338 1.6 4.8 0.00 0.00 0.00 48 1018.6
20260502214128 15 338 3.2 6.4 0.00 0.00 0.00 48 1019.0
20260502213628 15 293 4.8 6.4 0.00 0.00 0.00 49 1019.0
20260502213128 15 293 4.8 6.4 0.00 0.00 0.00 48 1019.0
20260502212628 15 270 6.4 6.4 0.00 0.00 0.00 47 1019.0